Preview of NWS' New Version of Forecast
This preview is not operational and should not be used for support decisions.

Regional Weather Roundup (RWR)

Issued by National Weather Service (NWS)

                            
000
ASUS43 KBIS 230502
RWRND 

NORTH DAKOTA REGIONAL WEATHER ROUNDUP
NATIONAL WEATHER SERVICE BISMARCK ND
1100 PM CST FRI FEB 22 2019

NOTE: "FAIR" INDICATES FEW OR NO CLOUDS BELOW 12,000 FEET WITH NO
SIGNIFICANT WEATHER AND/OR OBSTRUCTIONS TO VISIBILITY.


NDZ001>003-009>011-017-230600-
NORTHWEST NORTH DAKOTA
  
CITY           SKY/WX    TMP DP  RH WIND       PRES   REMARKS
WILLISTON      CLEAR      3   0  87 SW3       29.94F                  
MINOT          CLOUDY     1  -2  87 CALM      30.00F                  
MINOT AFB      CLOUDY    -4  -9  80 SE5         N/A  WCI -15          
$$
 
NDZ018>021-031>035-040>046-230600-
SOUTHWEST NORTH DAKOTA
  
CITY           SKY/WX    TMP DP  RH WIND       PRES   REMARKS
BISMARCK       LGT SNOW  12   9  87 E6        30.01F FOG     WCI   3  
DICKINSON      CLEAR      4   0  83 S8        29.89F WCI  -9          
GARRISON         N/A      7   4  87 SE6       29.98F WCI  -3          
HETTINGER ARPT CLOUDY     8   5  87 S5        29.92F WCI   0          
$$
 
NDZ004>008-012>016-024-026-027-054-230600-
NORTHEAST NORTH DAKOTA
  
CITY           SKY/WX    TMP DP  RH WIND       PRES   REMARKS
GRAND FORKS    LGT SNOW  13   9  84 E3        30.15F FOG              
GRND FRKS AFB  LGT SNOW  11   8  87 E3        30.14F FOG              
DEVILS LAKE    FLURRIES  10   7  87 SE9       30.08F WCI  -3          
$$
 
NDZ022-023-025-028>030-036>039-047>053-230600-
SOUTHEAST NORTH DAKOTA
  
CITY           SKY/WX    TMP DP  RH WIND       PRES   REMARKS
FARGO          LGT SNOW  19  16  88 CALM      30.14F FOG              
JAMESTOWN      LGT SNOW  11   9  92 E6        30.04F FOG     WCI   1  
$$